{"data":{"norad_id":63222,"epoch":"2026-05-25T03:32:06.410688Z","epoch_age_seconds":65754,"freshness":"FRESH","line1":"1 63222U 25052N   26145.14729642  .00005355  00000+0  22369-3 0  9994","line2":"2 63222  97.4003  38.9046 0003893 185.7829 174.3364 15.24044997 66389","mean_motion":15.24044997,"eccentricity":0.0003893,"inclination_deg":97.4003,"raan_deg":38.9046,"arg_perigee_deg":185.7829,"mean_anomaly_deg":174.3364,"bstar":0.00022369,"rev_number":6638,"period_min":94.485399239167,"perigee_km":490.97943293267,"apogee_km":496.3298098891,"semimajor_km":6871.7916214109,"source":"CELESTRAK","updated_at":"2026-05-25T13:38:03.578199Z"}}